Wind_Speed
10 11 10 7 6 3 4 4 2 2 6 7 10 14 15 13 11 10 9 8 6 8 9 12 11 11 10 12 11 10 10 8 7 4 1 3 4 5 4 2 2 3 5 7 10 12 13 13 14
11 12 13 9 8 5 2 2 4 2 3 6 10 15 18 15 12 12 12 14 11 9 10 11 13 13 12 11 11 11 12 9 6 2 2 4 5 5 3 1 2 5 7 9 12 13 13 15 14
10 15 15 10 10 8 7 4 1 4 7 9 13 15 16 19 18 18 16 14 12 9 11 11 12 12 13 11 10 10 9 8 4 2 4 5 5 5 3 3 4 7 9 11 12 12 11 10 11
9 16 18 13 13 12 11 9 14 9 10 15 17 15 12 18 17 20 18 16 13 10 11 11 10 12 13 12 11 9 8 6 4 3 3 4 5 5 4 3 5 7 10 11 10 8 9 10 12
7 17 21 19 11 11 10 8 3 8 14 16 22 17 16 20 25 25 21 17 9 6 9 10 10 11 13 12 11 8 6 5 4 3 4 5 5 4 3 3 6 7 8 8 7 9 11 13 16
4 15 21 21 17 13 12 9 9 14 14 17 21 21 20 24 27 30 23 16 8 8 8 8 6 7 10 9 8 6 6 5 4 3 3 3 2 2 3 5 6 5 5 6 8 11 14 15 15
4 10 21 21 18 16 16 15 11 10 16 15 22 22 21 22 25 30 23 14 7 7 7 6 4 5 8 6 6 6 6 5 4 3 2 2 2 3 5 4 4 3 5 8 10 12 13 13 13
4 8 21 20 20 20 18 16 11 13 11 16 23 24 18 16 24 27 23 13 10 10 6 5 7 7 7 7 7 7 6 5 5 5 4 4 3 3 4 4 4 5 7 9 10 11 13 15 17
5 5 19 21 21 21 19 19 12 12 12 17 20 23 19 13 20 24 20 15 14 10 4 2 4 5 6 7 7 7 7 7 6 4 3 3 3 3 4 4 6 7 9 11 12 13 14 16 17
5 7 18 20 22 24 22 20 17 14 15 16 22 22 18 11 16 19 17 15 16 11 4 1 1 4 5 6 6 6 5 4 4 4 4 5 4 3 5 6 8 10 12 13 14 15 15 16 17
5 8 10 12 13 21 23 22 20 16 17 18 24 30 15 12 11 14 14 13 11 12 9 4 3 5 5 5 5 4 4 3 4 6 7 4 3 4 6 8 11 13 15 15 15 15 16 17 19
5 6 8 11 12 15 24 24 22 20 18 21 24 29 12 6 8 10 11 11 11 7 7 6 4 4 5 6 5 5 6 7 6 5 3 2 3 6 10 12 15 16 17 18 17 17 19 18 19
7 8 7 9 14 15 20 25 27 21 24 21 24 27 17 7 4 6 10 8 12 8 6 4 3 5 7 8 7 7 5 3 2 1 3 5 8 11 14 17 19 21 22 22 23 22 19 19 21
9 10 10 11 15 16 14 17 18 18 22 24 23 24 17 10 1 2 3 4 10 12 10 8 6 5 4 4 4 3 3 3 3 5 7 9 11 14 18 21 24 27 27 28 28 30 28 23 21
13 12 12 12 12 13 13 17 15 16 21 20 15 15 15 5 2 4 1 3 5 7 11 14 10 5 3 3 2 2 3 5 7 9 12 15 18 21 25 29 32 30 35 34 37 39 33 32 21
15 15 15 15 13 13 11 17 19 20 24 17 13 11 7 6 4 7 3 2 6 4 5 7 10 10 11 5 4 5 7 9 12 13 16 20 23 26 30 35 44 34 36 42 49 42 40 27 16
16 18 19 18 16 13 12 12 19 18 25 13 7 6 7 8 6 11 10 8 9 9 9 7 9 12 13 10 8 11 12 16 17 17 19 23 24 28 33 39 41 43 47 46 49 27 36 26 16
15 17 19 21 19 17 15 14 19 20 25 16 15 8 7 10 8 9 13 13 15 13 13 8 8 14 16 15 14 14 17 18 19 21 24 27 29 35 39 44 47 48 53 44 58 57 41 28 18
11 13 17 21 22 19 16 19 20 22 24 21 18 16 15 12 9 9 10 13 14 16 10 11 14 15 22 22 17 16 19 24 26 28 30 32 35 39 37 48 45 48 57 43 51 46 17 23 19
9 10 15 21 24 21 19 24 30 29 23 20 21 21 19 13 4 12 16 16 15 12 10 10 17 21 23 30 30 21 21 27 30 32 34 38 39 43 48 52 53 54 61 45 53 41 18 21 24
9 10 11 13 15 15 13 18 21 20 17 13 14 9 9 2 3 9 16 22 16 12 13 16 20 22 26 27 31 29 31 32 35 38 40 43 44 48 52 55 57 58 50 47 53 28 28 28 30
7 8 8 9 12 12 8 11 13 10 10 13 9 4 5 2 7 17 16 13 8 11 15 23 25 25 25 28 29 32 35 37 36 37 38 40 43 46 50 53 50 45 46 51 27 33 35 30 32
6 7 7 9 10 11 9 8 8 11 8 7 6 7 7 9 15 15 19 13 7 11 17 22 25 24 27 27 26 30 34 32 34 35 35 39 40 45 49 42 44 40 38 38 35 30 32 35 36
6 6 4 6 6 8 10 7 10 12 13 9 9 10 10 12 14 17 20 16 16 19 14 20 23 24 25 28 28 28 30 33 36 39 41 41 42 47 46 32 35 38 46 42 34 33 35 38 41
7 7 6 6 6 9 8 9 13 13 12 10 9 12 15 15 19 18 22 20 22 17 18 19 20 22 24 28 39 37 46 47 46 43 41 41 53 35 27 30 32 34 41 39 32 35 38 41 46
11 11 9 6 6 9 11 12 14 16 16 16 11 11 11 11 14 17 21 21 19 20 20 21 23 33 35 38 37 38 44 47 43 45 40 43 27 31 30 31 34 35 40 29 29 37 40 44 49
8 10 11 12 11 7 10 12 16 18 21 21 21 17 16 18 21 21 19 21 20 20 28 25 28 32 34 33 35 40 47 54 56 60 47 60 40 42 40 34 37 37 34 29 34 39 41 45 44
11 12 12 14 17 18 14 15 17 17 20 21 21 20 21 19 17 20 23 24 25 24 26 28 29 33 34 36 39 44 48 51 43 43 48 50 55 45 42 41 41 33 28 33 38 42 45 46 48
19 19 21 22 23 26 26 25 24 21 22 23 23 22 24 23 23 19 19 20 21 22 23 30 34 35 36 41 42 45 47 49 51 49 48 50 55 41 38 40 38 30 31 37 42 43 46 46 49
22 24 25 28 30 30 32 29 29 31 29 28 29 28 28 28 28 30 29 29 32 30 31 35 39 42 47 47 49 51 49 51 53 46 44 41 42 30 29 34 27 31 35 40 42 45 47 50 53
Wind_Direction
232 235 231 218 259 295 324 315 342 46 74 23 16 8 3 349 337 333 334 325 309 311 286 272 273 286 282 283 286 292 293 289 291 303 351 128 128 130 130 107 357 349 342 339 339 337 332 334 329
230 220 233 227 247 206 227 303 349 111 18 2 12 354 3 9 4 359 350 335 324 325 324 287 269 272 279 277 277 280 281 277 274 275 153 142 141 149 155 216 297 322 332 333 332 331 327 327 325
231 211 225 216 238 226 210 257 298 239 301 322 352 356 7 13 16 20 8 332 318 308 319 315 276 259 263 267 274 275 271 267 264 209 156 149 156 168 193 254 297 324 329 321 323 325 325 327 318
239 210 218 225 222 237 239 242 264 293 292 331 334 354 356 18 16 11 2 351 311 292 310 303 300 259 261 270 274 276 263 250 233 182 162 161 174 193 219 270 309 320 319 315 322 329 323 319 316
232 207 216 227 222 229 240 223 250 296 302 324 354 353 353 4 14 9 5 356 325 298 325 305 292 260 253 263 272 268 250 233 202 182 179 184 194 215 247 290 308 314 319 318 330 326 321 315 315
243 211 211 229 226 241 225 213 259 294 315 325 343 340 345 355 9 2 2 353 346 351 318 291 276 253 245 259 271 258 239 214 186 190 194 211 223 245 270 298 304 312 320 316 319 310 309 312 317
266 219 213 229 234 228 233 251 265 290 313 311 331 337 348 1 4 1 359 353 347 341 315 279 251 233 240 246 238 224 210 197 185 181 164 164 189 255 287 284 283 288 302 306 306 308 312 315 313
273 233 216 230 235 245 255 259 279 295 305 304 332 339 346 3 360 4 358 2 358 332 304 255 234 225 227 209 199 198 189 169 162 162 166 187 230 255 253 249 263 288 298 304 313 310 307 304 304
281 235 217 223 227 250 259 277 293 307 302 307 329 337 336 10 4 4 8 8 6 345 325 273 218 199 195 191 190 180 167 169 168 179 203 208 202 206 225 260 277 284 293 300 303 303 303 306 306
287 244 219 233 237 242 256 268 288 298 302 311 332 335 328 0 359 4 20 15 16 8 23 37 172 176 171 170 173 174 172 177 189 179 190 166 181 223 273 280 281 289 295 301 303 302 303 305 306
279 263 273 278 274 243 250 263 278 297 295 299 320 326 324 353 12 359 17 26 19 29 44 61 112 143 155 163 165 174 172 176 175 161 156 173 230 279 286 288 288 292 298 298 300 302 302 298 297
285 288 293 291 291 276 241 259 270 292 308 299 309 318 325 354 20 356 5 37 36 33 51 60 87 124 142 148 146 147 143 144 146 152 173 230 287 294 292 289 288 288 292 293 291 292 292 296 298
273 271 244 259 268 271 259 259 269 286 279 285 294 305 321 346 31 356 347 45 39 36 42 51 68 87 98 106 107 104 108 114 97 346 306 301 295 291 290 292 294 292 286 282 280 278 278 289 298
271 275 263 239 250 264 268 265 279 275 277 285 299 294 302 313 141 347 354 74 48 32 32 26 32 70 90 101 100 100 82 41 359 332 322 313 302 300 299 297 289 282 284 281 279 281 276 275 287
276 278 280 285 292 302 311 293 291 299 305 319 299 275 280 305 193 224 276 26 48 27 22 28 42 18 50 58 61 40 356 335 329 327 325 317 308 300 295 292 290 285 282 276 285 276 270 269 279
272 283 286 287 293 311 318 285 294 293 317 312 309 258 207 232 195 240 236 268 307 322 320 6 4 5 15 306 281 281 302 305 301 300 303 302 298 294 291 290 297 268 304 304 293 290 267 255 283
282 286 287 291 298 305 312 300 280 290 309 317 322 263 229 234 231 232 242 249 264 275 290 292 330 331 332 341 324 293 292 296 292 294 297 295 293 291 292 296 299 300 300 300 308 297 298 281 319
287 290 295 295 300 303 307 290 271 280 306 315 322 319 298 305 299 265 251 237 256 261 278 297 298 303 300 308 310 297 292 291 288 288 289 289 290 293 296 296 297 299 300 305 301 306 302 280 319
288 289 290 289 294 300 299 284 277 276 293 300 295 305 308 306 309 310 323 297 252 264 258 296 311 297 291 291 266 286 295 289 289 287 288 288 290 293 296 291 286 292 287 293 298 299 301 342 314
264 269 278 286 290 300 301 289 283 287 291 282 286 282 280 280 306 313 298 284 284 263 285 304 307 296 292 288 305 303 289 289 289 287 286 286 287 288 288 292 291 293 291 302 288 282 344 336 317
285 281 284 291 296 301 294 282 285 298 316 320 323 318 261 269 317 300 304 299 265 275 268 283 272 274 287 282 290 297 296 292 288 286 286 284 285 285 287 290 291 292 294 287 285 317 354 334 321
301 293 302 317 308 319 316 292 292 314 342 341 342 359 0 304 276 303 324 298 240 232 262 269 281 285 266 284 285 288 288 288 289 289 286 284 283 284 285 287 300 289 293 296 303 326 339 327 321
309 297 296 306 307 312 317 319 290 289 313 318 308 282 274 278 294 302 309 294 263 267 272 285 282 287 275 273 281 293 289 289 288 286 285 281 280 281 279 286 293 298 299 319 329 340 327 324 318
352 8 1 306 302 306 307 314 293 284 280 292 266 262 255 272 285 291 283 273 257 282 267 291 285 281 280 274 275 286 288 288 284 279 276 276 276 276 281 292 299 301 304 322 325 329 322 318 314
326 346 339 328 325 309 313 305 279 292 295 288 276 267 264 270 278 279 283 286 268 275 295 278 259 264 275 273 281 289 295 292 287 284 279 276 269 284 307 300 293 290 297 305 318 317 314 313 311
326 327 330 316 314 288 300 301 305 310 309 310 313 305 293 295 293 292 296 300 315 296 306 293 290 306 306 313 313 306 302 296 285 292 302 307 303 302 296 288 286 288 288 289 307 308 308 309 311
320 315 311 311 305 296 301 297 292 301 305 306 309 315 306 296 298 293 290 290 293 296 300 300 297 300 299 307 310 304 300 304 320 324 309 318 313 299 291 281 281 287 294 311 305 305 311 314 313
304 295 294 297 298 295 278 279 279 281 290 295 301 304 300 296 290 276 276 278 287 289 292 292 293 295 300 304 304 305 308 310 315 322 320 310 314 294 275 278 283 285 303 306 306 309 310 309 309
294 296 297 294 290 292 293 292 292 286 286 292 295 296 297 298 293 281 277 263 268 276 286 295 300 304 302 298 300 303 305 307 315 320 319 322 323 278 268 274 286 295 307 308 307 307 309 311 310
283 286 288 290 291 291 292 288 290 295 294 292 291 289 289 291 293 296 294 286 287 287 289 291 291 295 300 306 307 310 308 310 313 311 319 321 327 274 277 286 303 304 303 304 307 310 310 308 310
Height
5914 5914 5915 5916 5920 5919 5918 5917 5916 5915 5914 5913 5912 5911 5910 5908 5906 5907 5903 5901 5899 5899 5899 5900 5900 5900 5899 5899 5899 5899 5900 5899 5899 5898 5897 5897 5897 5897 5897 5897 5898 5897 5897 5897 5897 5896 5896 5894 5894
5912 5913 5913 5915 5917 5918 5918 5916 5916 5914 5912 5911 5912 5910 5908 5905 5902 5901 5900 5899 5897 5896 5896 5896 5896 5897 5897 5897 5896 5896 5897 5897 5897 5896 5896 5896 5896 5896 5896 5896 5896 5896 5896 5895 5895 5894 5893 5892 5891
5910 5911 5913 5913 5914 5916 5917 5916 5915 5914 5912 5912 5912 5908 5906 5903 5900 5899 5898 5896 5894 5893 5893 5893 5892 5894 5896 5895 5894 5894 5894 5895 5894 5894 5894 5894 5894 5895 5895 5894 5894 5894 5894 5894 5892 5892 5891 5890 5890
5908 5910 5911 5911 5912 5914 5915 5916 5915 5914 5912 5912 5910 5908 5905 5902 5900 5898 5896 5893 5892 5891 5890 5889 5889 5890 5892 5892 5892 5891 5892 5892 5892 5892 5892 5892 5893 5893 5893 5893 5893 5892 5892 5891 5890 5889 5889 5887 5886
5906 5907 5908 5909 5911 5912 5912 5914 5915 5913 5912 5911 5910 5908 5905 5901 5898 5896 5894 5892 5890 5889 5887 5886 5887 5887 5889 5889 5889 5889 5889 5889 5890 5890 5890 5891 5890 5891 5891 5891 5891 5890 5889 5889 5888 5887 5885 5884 5882
5905 5906 5906 5906 5909 5910 5911 5913 5913 5913 5911 5911 5910 5907 5904 5900 5897 5894 5891 5889 5888 5887 5885 5885 5885 5885 5886 5887 5887 5888 5888 5888 5887 5888 5888 5889 5889 5889 5889 5889 5889 5888 5887 5886 5885 5884 5882 5880 5879
5904 5904 5904 5905 5906 5907 5909 5910 5911 5911 5911 5910 5909 5905 5903 5900 5896 5893 5890 5887 5886 5885 5884 5883 5883 5883 5884 5885 5886 5886 5886 5886 5886 5886 5887 5887 5887 5887 5887 5887 5886 5885 5885 5884 5882 5880 5878 5877 5875
5902 5902 5902 5903 5904 5904 5906 5908 5910 5909 5910 5908 5907 5904 5902 5900 5896 5893 5889 5887 5885 5884 5882 5882 5882 5882 5883 5883 5884 5885 5885 5885 5885 5885 5885 5885 5885 5885 5885 5885 5884 5883 5882 5881 5879 5877 5875 5874 5872
5900 5901 5901 5902 5903 5902 5903 5904 5907 5908 5908 5907 5906 5903 5901 5899 5896 5893 5890 5888 5885 5883 5882 5882 5882 5882 5882 5882 5883 5883 5883 5884 5884 5884 5884 5884 5883 5883 5883 5883 5882 5881 5880 5878 5876 5874 5872 5870 5869
5899 5899 5899 5899 5900 5901 5902 5903 5904 5907 5906 5905 5903 5902 5900 5898 5895 5894 5890 5888 5886 5884 5883 5882 5882 5882 5882 5882 5883 5883 5882 5882 5882 5882 5883 5881 5881 5881 5882 5881 5880 5878 5876 5875 5873 5871 5869 5867 5865
5897 5897 5897 5898 5899 5900 5901 5901 5902 5904 5904 5904 5903 5901 5899 5897 5895 5894 5892 5891 5888 5886 5884 5883 5883 5882 5882 5882 5882 5882 5881 5881 5881 5881 5880 5880 5880 5880 5880 5878 5877 5875 5874 5871 5870 5868 5865 5863 5860
5897 5897 5897 5897 5898 5899 5900 5900 5900 5902 5904 5903 5901 5899 5898 5897 5895 5895 5894 5892 5890 5888 5886 5885 5884 5883 5882 5882 5881 5881 5881 5881 5880 5880 5880 5880 5879 5878 5877 5875 5874 5872 5870 5868 5865 5862 5860 5857 5855
5896 5895 5895 5896 5896 5897 5898 5899 5898 5902 5899 5900 5899 5898 5897 5896 5895 5895 5894 5893 5891 5889 5887 5886 5885 5884 5883 5882 5882 5882 5881 5881 5880 5880 5879 5879 5878 5876 5874 5872 5870 5868 5865 5862 5859 5856 5853 5851 5849
5895 5894 5894 5893 5893 5894 5896 5898 5898 5899 5898 5897 5897 5897 5896 5895 5894 5894 5894 5893 5892 5890 5888 5887 5885 5884 5883 5883 5882 5882 5881 5881 5880 5879 5878 5877 5875 5872 5870 5868 5864 5859 5858 5855 5853 5852 5847 5843 5841
5893 5893 5893 5893 5894 5894 5895 5896 5895 5895 5894 5894 5893 5893 5894 5894 5893 5893 5892 5892 5891 5890 5889 5887 5886 5884 5883 5883 5882 5881 5880 5879 5878 5877 5876 5874 5871 5868 5865 5860 5857 5853 5852 5848 5846 5843 5836 5837 5833
5892 5893 5893 5892 5893 5894 5895 5894 5892 5892 5891 5891 5889 5889 5891 5892 5891 5891 5891 5890 5890 5889 5888 5888 5886 5885 5883 5881 5881 5880 5879 5878 5876 5875 5873 5870 5867 5863 5859 5854 5848 5832 5844 5842 5838 5829 5814 5827 5826
5892 5891 5890 5890 5891 5893 5893 5893 5889 5889 5888 5890 5889 5889 5889 5890 5890 5890 5890 5890 5888 5887 5887 5885 5885 5884 5882 5880 5878 5877 5877 5875 5873 5872 5870 5866 5863 5858 5854 5848 5844 5839 5835 5828 5820 5818 5821 5821 5814
5891 5890 5889 5888 5889 5890 5891 5891 5887 5887 5887 5888 5887 5888 5888 5887 5887 5888 5888 5888 5887 5886 5884 5884 5883 5881 5879 5877 5876 5875 5874 5872 5870 5868 5865 5862 5857 5853 5847 5842 5837 5832 5824 5811 5819 5818 5815 5809 5808
5889 5888 5886 5885 5885 5887 5889 5888 5886 5884 5885 5884 5885 5885 5884 5884 5885 5885 5885 5885 5884 5884 5883 5882 5882 5880 5877 5874 5871 5869 5869 5867 5865 5862 5859 5855 5851 5846 5840 5833 5828 5822 5818 5811 5812 5807 5804 5804 5802
5885 5885 5884 5883 5882 5885 5885 5884 5880 5880 5882 5881 5881 5880 5880 5880 5881 5882 5880 5880 5880 5880 5880 5879 5879 5876 5874 5868 5865 5864 5863 5863 5860 5856 5852 5849 5845 5839 5831 5826 5824 5820 5814 5807 5801 5794 5792 5795 5795
5883 5882 5882 5882 5880 5880 5880 5880 5878 5877 5876 5877 5876 5874 5874 5877 5877 5877 5876 5874 5875 5876 5875 5875 5873 5872 5870 5867 5863 5861 5859 5857 5854 5850 5846 5842 5837 5832 5825 5819 5816 5809 5803 5791 5786 5785 5781 5784 5784
5880 5879 5879 5878 5878 5878 5878 5878 5877 5877 5877 5875 5873 5873 5874 5875 5875 5874 5873 5870 5870 5872 5872 5871 5870 5867 5864 5864 5862 5859 5855 5851 5847 5843 5838 5833 5829 5823 5817 5810 5804 5799 5794 5780 5773 5774 5775 5776 5775
5879 5878 5877 5877 5876 5876 5876 5877 5876 5876 5875 5875 5875 5873 5873 5873 5872 5871 5869 5869 5868 5868 5869 5868 5866 5864 5860 5859 5856 5853 5849 5843 5839 5834 5830 5824 5819 5812 5804 5800 5797 5791 5780 5769 5770 5766 5768 5767 5766
5878 5877 5876 5876 5875 5875 5873 5875 5873 5873 5873 5873 5873 5872 5872 5871 5870 5868 5866 5865 5865 5863 5862 5863 5862 5860 5857 5852 5846 5840 5835 5830 5826 5821 5818 5812 5806 5798 5794 5791 5786 5783 5778 5770 5767 5763 5762 5762 5759
5877 5876 5876 5876 5875 5874 5873 5871 5867 5868 5867 5868 5869 5869 5869 5868 5867 5864 5862 5861 5862 5860 5859 5854 5851 5847 5845 5842 5839 5835 5829 5822 5816 5810 5800 5789 5792 5780 5781 5782 5780 5777 5773 5768 5763 5760 5757 5753 5749
5875 5875 5875 5874 5874 5872 5870 5868 5866 5865 5864 5863 5864 5864 5865 5865 5863 5860 5857 5855 5853 5852 5850 5848 5845 5841 5838 5836 5831 5827 5822 5814 5802 5787 5775 5759 5774 5776 5777 5774 5773 5769 5764 5761 5758 5754 5750 5746 5740
5873 5873 5872 5871 5871 5871 5869 5867 5863 5862 5861 5860 5860 5860 5860 5859 5857 5856 5854 5852 5849 5846 5841 5840 5837 5835 5831 5827 5823 5819 5812 5805 5798 5796 5789 5783 5776 5775 5771 5767 5763 5760 5756 5753 5750 5746 5741 5735 5730
5870 5870 5870 5868 5866 5865 5865 5863 5861 5861 5858 5856 5856 5854 5854 5852 5851 5850 5848 5846 5843 5839 5835 5833 5831 5826 5823 5819 5814 5810 5805 5799 5795 5787 5779 5770 5761 5756 5756 5756 5754 5752 5747 5744 5741 5737 5731 5725 5720
5865 5865 5864 5864 5863 5860 5859 5858 5855 5855 5854 5852 5850 5849 5847 5846 5844 5843 5840 5837 5835 5832 5829 5825 5821 5819 5816 5809 5805 5800 5794 5789 5784 5778 5770 5760 5751 5744 5744 5746 5745 5743 5738 5735 5732 5727 5722 5715 5708
5860 5860 5859 5857 5856 5854 5852 5853 5849 5847 5847 5845 5844 5842 5840 5838 5835 5833 5831 5830 5828 5824 5821 5817 5812 5809 5803 5802 5795 5791 5786 5780 5775 5769 5761 5752 5745 5738 5737 5737 5736 5734 5730 5727 5723 5717 5711 5704 5696